Location: College Park
(38.9810°N, 76.9370°W)
Time: 08:07:09
(UTC-04:00)

N. Korean satellite - Pass Details

Date: 14 February 2018
Orbit: 458 x 514 km, 97.2° (Epoch: 22 May)

Event Time Altitude Azimuth Distance (km) Brightness Sun altitude
Rises 06:18:04 0° 21° (NNE) 2,551 10.4 -8.8°
Reaches altitude 10° 06:20:16 10° 31° (NNE) 1,677 9.6 -8.4°
Maximum altitude 06:23:34 34° 98° (E) 835 8.7 -7.8°
Drops below altitude 10° 06:26:55 10° 164° (SSE) 1,694 9.7 -7.1°
Sets 06:29:08 0° 174° (S) 2,582 10.5 -6.7°
